#datetime,building,power
2024-01-16T00:00:00,axn,29.87
2024-01-16T00:01:00,axn,30.35
2024-01-16T00:02:00,axn,29.25
2024-01-16T00:03:00,axn,29.38
2024-01-16T00:04:00,axn,29.41
2024-01-16T00:05:00,axn,46.07
2024-01-16T00:06:00,axn,30.94
2024-01-16T00:07:00,axn,33.76
2024-01-16T00:08:00,axn,34.12
2024-01-16T00:09:00,axn,35.41
2024-01-16T00:10:00,axn,35.26
2024-01-16T00:11:00,axn,34.90
2024-01-16T00:12:00,axn,34.80
2024-01-16T00:13:00,axn,34.47
2024-01-16T00:14:00,axn,34.97
2024-01-16T00:15:00,axn,35.54
2024-01-16T00:16:00,axn,34.70
2024-01-16T00:17:00,axn,34.46
2024-01-16T00:18:00,axn,34.91
2024-01-16T00:19:00,axn,35.16
2024-01-16T00:20:00,axn,34.86
2024-01-16T00:21:00,axn,34.63
2024-01-16T00:22:00,axn,37.61
2024-01-16T00:23:00,axn,34.36
2024-01-16T00:24:00,axn,34.43
2024-01-16T00:25:00,axn,34.84
2024-01-16T00:26:00,axn,34.40
2024-01-16T00:27:00,axn,34.96
2024-01-16T00:28:00,axn,34.44
2024-01-16T00:29:00,axn,44.98
2024-01-16T00:30:00,axn,44.79
2024-01-16T00:31:00,axn,45.64
2024-01-16T00:32:00,axn,44.54
2024-01-16T00:33:00,axn,44.88
2024-01-16T00:34:00,axn,35.40
2024-01-16T00:35:00,axn,34.25
2024-01-16T00:36:00,axn,35.44
2024-01-16T00:37:00,axn,34.44
2024-01-16T00:38:00,axn,34.40
2024-01-16T00:39:00,axn,31.42
2024-01-16T00:40:00,axn,31.18
2024-01-16T00:41:00,axn,30.03
2024-01-16T00:42:00,axn,30.02
2024-01-16T00:43:00,axn,29.83
2024-01-16T00:44:00,axn,30.12
2024-01-16T00:45:00,axn,29.31
2024-01-16T00:46:00,axn,29.31
2024-01-16T00:47:00,axn,29.27
2024-01-16T00:48:00,axn,29.31
2024-01-16T00:49:00,axn,29.45
2024-01-16T00:50:00,axn,29.72
2024-01-16T00:51:00,axn,29.46
2024-01-16T00:52:00,axn,29.63
2024-01-16T00:53:00,axn,30.24
2024-01-16T00:54:00,axn,29.77
2024-01-16T00:55:00,axn,29.08
2024-01-16T00:56:00,axn,29.24
2024-01-16T00:57:00,axn,29.04
2024-01-16T00:58:00,axn,29.41
2024-01-16T00:59:00,axn,29.12
2024-01-16T01:00:00,axn,29.06
2024-01-16T01:01:00,axn,28.87
2024-01-16T01:02:00,axn,28.63
2024-01-16T01:03:00,axn,28.68
2024-01-16T01:04:00,axn,28.54
2024-01-16T01:05:00,axn,28.59
2024-01-16T01:06:00,axn,28.55
2024-01-16T01:07:00,axn,28.64
2024-01-16T01:08:00,axn,28.69
2024-01-16T01:09:00,axn,28.69
2024-01-16T01:10:00,axn,28.75
2024-01-16T01:11:00,axn,28.73
2024-01-16T01:12:00,axn,28.50
2024-01-16T01:13:00,axn,28.74
2024-01-16T01:14:00,axn,28.77
2024-01-16T01:15:00,axn,28.71
2024-01-16T01:16:00,axn,28.81
2024-01-16T01:17:00,axn,29.28
2024-01-16T01:18:00,axn,28.89
2024-01-16T01:19:00,axn,28.95
2024-01-16T01:20:00,axn,28.90
2024-01-16T01:21:00,axn,28.77
2024-01-16T01:22:00,axn,29.33
2024-01-16T01:23:00,axn,28.87
2024-01-16T01:24:00,axn,29.10
2024-01-16T01:25:00,axn,29.12
2024-01-16T01:26:00,axn,29.16
2024-01-16T01:27:00,axn,29.06
2024-01-16T01:28:00,axn,29.08
2024-01-16T01:29:00,axn,29.01
2024-01-16T01:30:00,axn,29.85
2024-01-16T01:31:00,axn,29.65
2024-01-16T01:32:00,axn,29.44
2024-01-16T01:33:00,axn,29.19
2024-01-16T01:34:00,axn,29.42
2024-01-16T01:35:00,axn,28.98
2024-01-16T01:36:00,axn,29.28
2024-01-16T01:37:00,axn,28.92
2024-01-16T01:38:00,axn,28.82
2024-01-16T01:39:00,axn,28.97
2024-01-16T01:40:00,axn,29.01
2024-01-16T01:41:00,axn,28.66
2024-01-16T01:42:00,axn,28.87
2024-01-16T01:43:00,axn,29.12
2024-01-16T01:44:00,axn,29.19
2024-01-16T01:45:00,axn,29.27
2024-01-16T01:46:00,axn,29.19
2024-01-16T01:47:00,axn,28.91
2024-01-16T01:48:00,axn,29.21
2024-01-16T01:49:00,axn,29.04
2024-01-16T01:50:00,axn,28.21
2024-01-16T01:51:00,axn,28.30
2024-01-16T01:52:00,axn,28.42
2024-01-16T01:53:00,axn,28.09
2024-01-16T01:54:00,axn,28.28
2024-01-16T01:55:00,axn,28.22
2024-01-16T01:56:00,axn,28.08
2024-01-16T01:57:00,axn,28.22
2024-01-16T01:58:00,axn,28.12
2024-01-16T01:59:00,axn,28.10
2024-01-16T02:00:00,axn,27.82
2024-01-16T02:01:00,axn,28.02
2024-01-16T02:02:00,axn,27.89
2024-01-16T02:03:00,axn,28.48
2024-01-16T02:04:00,axn,28.30
2024-01-16T02:05:00,axn,28.37
2024-01-16T02:06:00,axn,27.80
2024-01-16T02:07:00,axn,27.98
2024-01-16T02:08:00,axn,28.68
2024-01-16T02:09:00,axn,28.78
2024-01-16T02:10:00,axn,28.53
2024-01-16T02:11:00,axn,27.93
2024-01-16T02:12:00,axn,28.03
2024-01-16T02:13:00,axn,27.75
2024-01-16T02:14:00,axn,28.22
2024-01-16T02:15:00,axn,28.18
2024-01-16T02:16:00,axn,28.26
2024-01-16T02:17:00,axn,28.11
2024-01-16T02:18:00,axn,28.43
2024-01-16T02:19:00,axn,28.32
2024-01-16T02:20:00,axn,28.39
2024-01-16T02:21:00,axn,28.41
2024-01-16T02:22:00,axn,28.48
2024-01-16T02:23:00,axn,28.31
2024-01-16T02:24:00,axn,28.27
2024-01-16T02:25:00,axn,28.26
2024-01-16T02:26:00,axn,28.10
2024-01-16T02:27:00,axn,28.09
2024-01-16T02:28:00,axn,28.05
2024-01-16T02:29:00,axn,28.01
2024-01-16T02:30:00,axn,27.91
2024-01-16T02:31:00,axn,28.18
2024-01-16T02:32:00,axn,27.88
2024-01-16T02:33:00,axn,28.07
2024-01-16T02:34:00,axn,28.02
2024-01-16T02:35:00,axn,28.24
2024-01-16T02:36:00,axn,28.24
2024-01-16T02:37:00,axn,28.51
2024-01-16T02:38:00,axn,28.04
2024-01-16T02:39:00,axn,34.34
2024-01-16T02:40:00,axn,34.25
2024-01-16T02:41:00,axn,34.26
2024-01-16T02:42:00,axn,28.53
2024-01-16T02:43:00,axn,28.20
2024-01-16T02:44:00,axn,28.46
2024-01-16T02:45:00,axn,29.11
2024-01-16T02:46:00,axn,29.06
2024-01-16T02:47:00,axn,29.21
2024-01-16T02:48:00,axn,28.48
2024-01-16T02:49:00,axn,28.35
2024-01-16T02:50:00,axn,28.92
2024-01-16T02:51:00,axn,28.72
2024-01-16T02:52:00,axn,28.32
2024-01-16T02:53:00,axn,28.79
2024-01-16T02:54:00,axn,28.24
2024-01-16T02:55:00,axn,28.27
2024-01-16T02:56:00,axn,31.07
2024-01-16T02:57:00,axn,28.05
2024-01-16T02:58:00,axn,28.20
2024-01-16T02:59:00,axn,28.30
2024-01-16T03:00:00,axn,27.92
2024-01-16T03:01:00,axn,28.55
2024-01-16T03:02:00,axn,27.88
2024-01-16T03:03:00,axn,27.84
2024-01-16T03:04:00,axn,27.92
2024-01-16T03:05:00,axn,27.99
2024-01-16T03:06:00,axn,27.95
2024-01-16T03:07:00,axn,27.88
2024-01-16T03:08:00,axn,28.03
2024-01-16T03:09:00,axn,27.98
2024-01-16T03:10:00,axn,28.16
2024-01-16T03:11:00,axn,27.67
2024-01-16T03:12:00,axn,28.09
2024-01-16T03:13:00,axn,28.17
2024-01-16T03:14:00,axn,28.81
2024-01-16T03:15:00,axn,28.14
2024-01-16T03:16:00,axn,28.17
2024-01-16T03:17:00,axn,28.35
2024-01-16T03:18:00,axn,28.48
2024-01-16T03:19:00,axn,28.07
2024-01-16T03:20:00,axn,28.28
2024-01-16T03:21:00,axn,28.16
2024-01-16T03:22:00,axn,28.30
2024-01-16T03:23:00,axn,28.08
2024-01-16T03:24:00,axn,28.33
2024-01-16T03:25:00,axn,28.99
2024-01-16T03:26:00,axn,28.63
2024-01-16T03:27:00,axn,28.47
2024-01-16T03:28:00,axn,28.58
2024-01-16T03:29:00,axn,28.13
2024-01-16T03:30:00,axn,28.43
2024-01-16T03:31:00,axn,28.73
2024-01-16T03:32:00,axn,28.41
2024-01-16T03:33:00,axn,28.67
2024-01-16T03:34:00,axn,28.62
2024-01-16T03:35:00,axn,28.63
2024-01-16T03:36:00,axn,28.50
2024-01-16T03:37:00,axn,34.33
2024-01-16T03:38:00,axn,28.42
2024-01-16T03:39:00,axn,28.42
2024-01-16T03:40:00,axn,28.53
2024-01-16T03:41:00,axn,28.25
2024-01-16T03:42:00,axn,28.34
2024-01-16T03:43:00,axn,28.27
2024-01-16T03:44:00,axn,28.37
2024-01-16T03:45:00,axn,28.22
2024-01-16T03:46:00,axn,28.44
2024-01-16T03:47:00,axn,28.47
2024-01-16T03:48:00,axn,28.28
2024-01-16T03:49:00,axn,28.18
2024-01-16T03:50:00,axn,29.06
2024-01-16T03:51:00,axn,28.20
2024-01-16T03:52:00,axn,27.98
2024-01-16T03:53:00,axn,28.12
2024-01-16T03:54:00,axn,39.15
2024-01-16T03:55:00,axn,27.99
2024-01-16T03:56:00,axn,27.97
2024-01-16T03:57:00,axn,28.04
2024-01-16T03:58:00,axn,28.05
2024-01-16T03:59:00,axn,28.33
2024-01-16T04:00:00,axn,28.00
2024-01-16T04:01:00,axn,28.16
2024-01-16T04:02:00,axn,27.81
2024-01-16T04:03:00,axn,27.76
2024-01-16T04:04:00,axn,29.11
2024-01-16T04:05:00,axn,28.79
2024-01-16T04:06:00,axn,27.99
2024-01-16T04:07:00,axn,27.94
2024-01-16T04:08:00,axn,27.82
2024-01-16T04:09:00,axn,27.68
2024-01-16T04:10:00,axn,27.89
2024-01-16T04:11:00,axn,28.72
2024-01-16T04:12:00,axn,28.68
2024-01-16T04:13:00,axn,28.67
2024-01-16T04:14:00,axn,28.49
2024-01-16T04:15:00,axn,28.66
2024-01-16T04:16:00,axn,28.70
2024-01-16T04:17:00,axn,28.35
2024-01-16T04:18:00,axn,28.21
2024-01-16T04:19:00,axn,28.05
2024-01-16T04:20:00,axn,28.13
2024-01-16T04:21:00,axn,28.14
2024-01-16T04:22:00,axn,28.08
2024-01-16T04:23:00,axn,28.11
2024-01-16T04:24:00,axn,28.32
2024-01-16T04:25:00,axn,28.22
2024-01-16T04:26:00,axn,28.36
2024-01-16T04:27:00,axn,28.46
2024-01-16T04:28:00,axn,43.11
2024-01-16T04:29:00,axn,28.50
2024-01-16T04:30:00,axn,43.00
2024-01-16T04:31:00,axn,42.82
2024-01-16T04:32:00,axn,42.77
2024-01-16T04:33:00,axn,42.55
2024-01-16T04:34:00,axn,28.57
2024-01-16T04:35:00,axn,28.50
2024-01-16T04:36:00,axn,28.36
2024-01-16T04:37:00,axn,28.31
2024-01-16T04:38:00,axn,29.87
2024-01-16T04:39:00,axn,28.39
2024-01-16T04:40:00,axn,28.38
2024-01-16T04:41:00,axn,28.25
2024-01-16T04:42:00,axn,28.59
2024-01-16T04:43:00,axn,28.37
2024-01-16T04:44:00,axn,28.65
2024-01-16T04:45:00,axn,29.05
2024-01-16T04:46:00,axn,28.98
2024-01-16T04:47:00,axn,28.33
2024-01-16T04:48:00,axn,28.10
2024-01-16T04:49:00,axn,28.23
2024-01-16T04:50:00,axn,28.33
2024-01-16T04:51:00,axn,28.79
2024-01-16T04:52:00,axn,28.36
2024-01-16T04:53:00,axn,28.02
2024-01-16T04:54:00,axn,28.15
2024-01-16T04:55:00,axn,28.17
2024-01-16T04:56:00,axn,28.10
2024-01-16T04:57:00,axn,28.37
2024-01-16T04:58:00,axn,28.28
2024-01-16T04:59:00,axn,28.80
2024-01-16T05:00:00,axn,28.39
2024-01-16T05:01:00,axn,26.23
2024-01-16T05:02:00,axn,26.04
2024-01-16T05:03:00,axn,26.19
2024-01-16T05:04:00,axn,26.07
2024-01-16T05:05:00,axn,25.96
2024-01-16T05:06:00,axn,36.61
2024-01-16T05:07:00,axn,51.70
2024-01-16T05:08:00,axn,36.60
2024-01-16T05:09:00,axn,36.23
2024-01-16T05:10:00,axn,26.06
2024-01-16T05:11:00,axn,25.77
2024-01-16T05:12:00,axn,25.81
2024-01-16T05:13:00,axn,25.95
2024-01-16T05:14:00,axn,26.23
2024-01-16T05:15:00,axn,26.16
2024-01-16T05:16:00,axn,25.97
2024-01-16T05:17:00,axn,25.80
2024-01-16T05:18:00,axn,25.69
2024-01-16T05:19:00,axn,25.79
2024-01-16T05:20:00,axn,25.72
2024-01-16T05:21:00,axn,25.35
2024-01-16T05:22:00,axn,25.01
2024-01-16T05:23:00,axn,24.92
2024-01-16T05:24:00,axn,25.81
2024-01-16T05:25:00,axn,25.83
2024-01-16T05:26:00,axn,25.05
2024-01-16T05:27:00,axn,25.38
2024-01-16T05:28:00,axn,25.34
2024-01-16T05:29:00,axn,25.28
2024-01-16T05:30:00,axn,25.59
2024-01-16T05:31:00,axn,25.59
2024-01-16T05:32:00,axn,25.74
2024-01-16T05:33:00,axn,25.57
2024-01-16T05:34:00,axn,25.55
2024-01-16T05:35:00,axn,25.43
2024-01-16T05:36:00,axn,25.58
2024-01-16T05:37:00,axn,25.44
2024-01-16T05:38:00,axn,25.46
2024-01-16T05:39:00,axn,25.37
2024-01-16T05:40:00,axn,25.81
2024-01-16T05:41:00,axn,28.13
2024-01-16T05:42:00,axn,28.38
2024-01-16T05:43:00,axn,25.05
2024-01-16T05:44:00,axn,25.26
2024-01-16T05:45:00,axn,25.19
2024-01-16T05:46:00,axn,25.22
2024-01-16T05:47:00,axn,30.94
2024-01-16T05:48:00,axn,31.51
2024-01-16T05:49:00,axn,30.91
2024-01-16T05:50:00,axn,44.93
2024-01-16T05:51:00,axn,25.13
2024-01-16T05:52:00,axn,24.97
2024-01-16T05:53:00,axn,25.14
2024-01-16T05:54:00,axn,25.18
2024-01-16T05:55:00,axn,25.15
2024-01-16T05:56:00,axn,25.30
2024-01-16T05:57:00,axn,25.24
2024-01-16T05:58:00,axn,25.09
2024-01-16T05:59:00,axn,25.77
2024-01-16T06:00:00,axn,26.07
2024-01-16T06:01:00,axn,25.82
2024-01-16T06:02:00,axn,25.58
2024-01-16T06:03:00,axn,25.68
2024-01-16T06:04:00,axn,26.61
2024-01-16T06:05:00,axn,26.73
2024-01-16T06:06:00,axn,25.93
2024-01-16T06:07:00,axn,26.09
2024-01-16T06:08:00,axn,26.24
2024-01-16T06:09:00,axn,26.40
2024-01-16T06:10:00,axn,26.38
2024-01-16T06:11:00,axn,26.09
2024-01-16T06:12:00,axn,26.09
2024-01-16T06:13:00,axn,29.74
2024-01-16T06:14:00,axn,30.86
2024-01-16T06:15:00,axn,30.83
2024-01-16T06:16:00,axn,31.01
2024-01-16T06:17:00,axn,31.13
2024-01-16T06:18:00,axn,30.99
2024-01-16T06:19:00,axn,35.72
2024-01-16T06:20:00,axn,36.06
2024-01-16T06:21:00,axn,35.68
2024-01-16T06:22:00,axn,35.47
2024-01-16T06:23:00,axn,31.27
2024-01-16T06:24:00,axn,31.66
2024-01-16T06:25:00,axn,31.39
2024-01-16T06:26:00,axn,31.75
2024-01-16T06:27:00,axn,31.60
2024-01-16T06:28:00,axn,32.20
2024-01-16T06:29:00,axn,31.61
2024-01-16T06:30:00,axn,31.19
2024-01-16T06:31:00,axn,31.17
2024-01-16T06:32:00,axn,30.95
2024-01-16T06:33:00,axn,30.70
2024-01-16T06:34:00,axn,31.01
2024-01-16T06:35:00,axn,30.84
2024-01-16T06:36:00,axn,30.75
2024-01-16T06:37:00,axn,30.37
2024-01-16T06:38:00,axn,30.31
2024-01-16T06:39:00,axn,30.36
2024-01-16T06:40:00,axn,30.92
2024-01-16T06:41:00,axn,30.94
2024-01-16T06:42:00,axn,40.29
2024-01-16T06:43:00,axn,30.46
2024-01-16T06:44:00,axn,30.97
2024-01-16T06:45:00,axn,31.09
2024-01-16T06:46:00,axn,30.63
2024-01-16T06:47:00,axn,30.42
2024-01-16T06:48:00,axn,30.19
2024-01-16T06:49:00,axn,30.28
2024-01-16T06:50:00,axn,30.05
2024-01-16T06:51:00,axn,30.54
2024-01-16T06:52:00,axn,30.87
2024-01-16T06:53:00,axn,30.90
2024-01-16T06:54:00,axn,30.80
2024-01-16T06:55:00,axn,30.34
2024-01-16T06:56:00,axn,30.48
2024-01-16T06:57:00,axn,30.49
2024-01-16T06:58:00,axn,30.79
2024-01-16T06:59:00,axn,30.21
2024-01-16T07:00:00,axn,30.05
2024-01-16T07:01:00,axn,30.63
2024-01-16T07:02:00,axn,31.79
2024-01-16T07:03:00,axn,31.33
2024-01-16T07:04:00,axn,31.83
2024-01-16T07:05:00,axn,31.65
2024-01-16T07:06:00,axn,31.61
2024-01-16T07:07:00,axn,31.50
2024-01-16T07:08:00,axn,31.94
2024-01-16T07:09:00,axn,31.70
2024-01-16T07:10:00,axn,32.28
2024-01-16T07:11:00,axn,32.31
2024-01-16T07:12:00,axn,31.43
2024-01-16T07:13:00,axn,31.64
2024-01-16T07:14:00,axn,31.93
2024-01-16T07:15:00,axn,31.54
2024-01-16T07:16:00,axn,32.12
2024-01-16T07:17:00,axn,31.81
2024-01-16T07:18:00,axn,32.55
2024-01-16T07:19:00,axn,31.95
2024-01-16T07:20:00,axn,32.01
2024-01-16T07:21:00,axn,32.91
2024-01-16T07:22:00,axn,32.49
2024-01-16T07:23:00,axn,33.66
2024-01-16T07:24:00,axn,34.59
2024-01-16T07:25:00,axn,33.25
2024-01-16T07:26:00,axn,33.47
2024-01-16T07:27:00,axn,35.96
2024-01-16T07:28:00,axn,35.93
2024-01-16T07:29:00,axn,34.62
2024-01-16T07:30:00,axn,37.20
2024-01-16T07:31:00,axn,35.32
2024-01-16T07:32:00,axn,34.53
2024-01-16T07:33:00,axn,35.20
2024-01-16T07:34:00,axn,35.70
2024-01-16T07:35:00,axn,35.38
2024-01-16T07:36:00,axn,34.55
2024-01-16T07:37:00,axn,34.40
2024-01-16T07:38:00,axn,44.88
2024-01-16T07:39:00,axn,33.35
2024-01-16T07:40:00,axn,34.20
2024-01-16T07:41:00,axn,39.73
2024-01-16T07:42:00,axn,38.04
2024-01-16T07:43:00,axn,36.94
2024-01-16T07:44:00,axn,38.37
2024-01-16T07:45:00,axn,37.50
2024-01-16T07:46:00,axn,37.56
2024-01-16T07:47:00,axn,38.29
2024-01-16T07:48:00,axn,38.09
2024-01-16T07:49:00,axn,40.31
2024-01-16T07:50:00,axn,37.43
2024-01-16T07:51:00,axn,38.16
2024-01-16T07:52:00,axn,38.13
2024-01-16T07:53:00,axn,37.59
2024-01-16T07:54:00,axn,37.07
2024-01-16T07:55:00,axn,37.08
2024-01-16T07:56:00,axn,36.96
2024-01-16T07:57:00,axn,36.85
2024-01-16T07:58:00,axn,36.88
2024-01-16T07:59:00,axn,36.67
2024-01-16T08:00:00,axn,37.15
2024-01-16T08:01:00,axn,40.98
2024-01-16T08:02:00,axn,39.29
2024-01-16T08:03:00,axn,41.01
2024-01-16T08:04:00,axn,39.55
2024-01-16T08:05:00,axn,40.54
2024-01-16T08:06:00,axn,42.20
2024-01-16T08:07:00,axn,39.48
2024-01-16T08:08:00,axn,39.77
2024-01-16T08:09:00,axn,41.27
2024-01-16T08:10:00,axn,41.26
2024-01-16T08:11:00,axn,40.27
2024-01-16T08:12:00,axn,40.93
2024-01-16T08:13:00,axn,43.21
2024-01-16T08:14:00,axn,40.96
2024-01-16T08:15:00,axn,41.60
2024-01-16T08:16:00,axn,41.20
2024-01-16T08:17:00,axn,42.72
2024-01-16T08:18:00,axn,41.17
2024-01-16T08:19:00,axn,42.58
2024-01-16T08:20:00,axn,42.14
2024-01-16T08:21:00,axn,41.58
2024-01-16T08:22:00,axn,43.36
2024-01-16T08:23:00,axn,41.83
2024-01-16T08:24:00,axn,42.01
2024-01-16T08:25:00,axn,42.12
2024-01-16T08:26:00,axn,41.87
2024-01-16T08:27:00,axn,43.38
2024-01-16T08:28:00,axn,42.03
2024-01-16T08:29:00,axn,42.97
2024-01-16T08:30:00,axn,57.08
2024-01-16T08:31:00,axn,58.55
2024-01-16T08:32:00,axn,42.72
2024-01-16T08:33:00,axn,57.32
2024-01-16T08:34:00,axn,58.74
2024-01-16T08:35:00,axn,56.67
2024-01-16T08:36:00,axn,56.47
2024-01-16T08:37:00,axn,43.04
2024-01-16T08:38:00,axn,44.62
2024-01-16T08:39:00,axn,44.48
2024-01-16T08:40:00,axn,46.50
2024-01-16T08:41:00,axn,45.55
2024-01-16T08:42:00,axn,45.48
2024-01-16T08:43:00,axn,45.06
2024-01-16T08:44:00,axn,45.22
2024-01-16T08:45:00,axn,47.67
2024-01-16T08:46:00,axn,48.06
2024-01-16T08:47:00,axn,46.04
2024-01-16T08:48:00,axn,46.20
2024-01-16T08:49:00,axn,45.29
2024-01-16T08:50:00,axn,45.76
2024-01-16T08:51:00,axn,45.23
2024-01-16T08:52:00,axn,45.51
2024-01-16T08:53:00,axn,45.51
2024-01-16T08:54:00,axn,46.06
2024-01-16T08:55:00,axn,45.82
2024-01-16T08:56:00,axn,45.00
2024-01-16T08:57:00,axn,45.00
2024-01-16T08:58:00,axn,45.04
2024-01-16T08:59:00,axn,45.65
2024-01-16T09:00:00,axn,45.35
2024-01-16T09:01:00,axn,45.29
2024-01-16T09:02:00,axn,45.26
2024-01-16T09:03:00,axn,47.09
2024-01-16T09:04:00,axn,45.68
2024-01-16T09:05:00,axn,45.66
2024-01-16T09:06:00,axn,45.48
2024-01-16T09:07:00,axn,45.23
2024-01-16T09:08:00,axn,45.22
2024-01-16T09:09:00,axn,45.77
2024-01-16T09:10:00,axn,45.45
2024-01-16T09:11:00,axn,45.66
2024-01-16T09:12:00,axn,45.33
2024-01-16T09:13:00,axn,44.89
2024-01-16T09:14:00,axn,45.15
2024-01-16T09:15:00,axn,44.55
2024-01-16T09:16:00,axn,44.75
2024-01-16T09:17:00,axn,45.34
2024-01-16T09:18:00,axn,45.20
2024-01-16T09:19:00,axn,45.04
2024-01-16T09:20:00,axn,45.23
2024-01-16T09:21:00,axn,44.90
2024-01-16T09:22:00,axn,45.00
2024-01-16T09:23:00,axn,44.91
2024-01-16T09:24:00,axn,45.43
2024-01-16T09:25:00,axn,44.88
2024-01-16T09:26:00,axn,44.70
2024-01-16T09:27:00,axn,44.45
2024-01-16T09:28:00,axn,44.74
2024-01-16T09:29:00,axn,45.41
2024-01-16T09:30:00,axn,45.18
2024-01-16T09:31:00,axn,45.64
2024-01-16T09:32:00,axn,44.84
2024-01-16T09:33:00,axn,44.52
2024-01-16T09:34:00,axn,44.68
2024-01-16T09:35:00,axn,44.51
2024-01-16T09:36:00,axn,46.82
2024-01-16T09:37:00,axn,45.77
2024-01-16T09:38:00,axn,44.26
2024-01-16T09:39:00,axn,44.62
2024-01-16T09:40:00,axn,44.78
2024-01-16T09:41:00,axn,44.96
2024-01-16T09:42:00,axn,55.23
2024-01-16T09:43:00,axn,55.09
2024-01-16T09:44:00,axn,54.83
2024-01-16T09:45:00,axn,55.81
2024-01-16T09:46:00,axn,57.23
2024-01-16T09:47:00,axn,47.13
2024-01-16T09:48:00,axn,47.00
2024-01-16T09:49:00,axn,47.43
2024-01-16T09:50:00,axn,46.53
2024-01-16T09:51:00,axn,45.64
2024-01-16T09:52:00,axn,46.14
2024-01-16T09:53:00,axn,46.65
2024-01-16T09:54:00,axn,46.73
2024-01-16T09:55:00,axn,46.39
2024-01-16T09:56:00,axn,45.87
2024-01-16T09:57:00,axn,45.91
2024-01-16T09:58:00,axn,45.98
2024-01-16T09:59:00,axn,48.80
2024-01-16T10:00:00,axn,46.13
2024-01-16T10:01:00,axn,46.56
2024-01-16T10:02:00,axn,47.11
2024-01-16T10:03:00,axn,48.76
2024-01-16T10:04:00,axn,48.45
2024-01-16T10:05:00,axn,48.15
2024-01-16T10:06:00,axn,48.62
2024-01-16T10:07:00,axn,48.55
2024-01-16T10:08:00,axn,48.33
2024-01-16T10:09:00,axn,47.71
2024-01-16T10:10:00,axn,50.82
2024-01-16T10:11:00,axn,50.68
2024-01-16T10:12:00,axn,50.40
2024-01-16T10:13:00,axn,47.86
2024-01-16T10:14:00,axn,48.72
2024-01-16T10:15:00,axn,50.74
2024-01-16T10:16:00,axn,48.42
2024-01-16T10:17:00,axn,49.02
2024-01-16T10:18:00,axn,48.05
2024-01-16T10:19:00,axn,48.19
2024-01-16T10:20:00,axn,47.77
2024-01-16T10:21:00,axn,47.91
2024-01-16T10:22:00,axn,47.76
2024-01-16T10:23:00,axn,47.42
2024-01-16T10:24:00,axn,47.45
2024-01-16T10:25:00,axn,47.13
2024-01-16T10:26:00,axn,47.22
2024-01-16T10:27:00,axn,46.13
2024-01-16T10:28:00,axn,47.02
2024-01-16T10:29:00,axn,46.51
2024-01-16T10:30:00,axn,49.24
2024-01-16T10:31:00,axn,46.88
2024-01-16T10:32:00,axn,46.39
2024-01-16T10:33:00,axn,47.13
2024-01-16T10:34:00,axn,47.05
2024-01-16T10:35:00,axn,46.97
2024-01-16T10:36:00,axn,47.80
2024-01-16T10:37:00,axn,45.73
2024-01-16T10:38:00,axn,45.88
2024-01-16T10:39:00,axn,45.71
2024-01-16T10:40:00,axn,45.93
2024-01-16T10:41:00,axn,45.98
2024-01-16T10:42:00,axn,45.96
2024-01-16T10:43:00,axn,46.14
2024-01-16T10:44:00,axn,45.81
2024-01-16T10:45:00,axn,46.07
2024-01-16T10:46:00,axn,46.12
2024-01-16T10:47:00,axn,46.62
2024-01-16T10:48:00,axn,46.42
2024-01-16T10:49:00,axn,47.07
2024-01-16T10:50:00,axn,46.30
2024-01-16T10:51:00,axn,45.57
2024-01-16T10:52:00,axn,46.68
2024-01-16T10:53:00,axn,46.11
2024-01-16T10:54:00,axn,46.02
2024-01-16T10:55:00,axn,46.77
2024-01-16T10:56:00,axn,46.76
2024-01-16T10:57:00,axn,45.83
2024-01-16T10:58:00,axn,46.24
2024-01-16T10:59:00,axn,45.47
2024-01-16T11:00:00,axn,46.05
2024-01-16T11:01:00,axn,45.90
2024-01-16T11:02:00,axn,47.48
2024-01-16T11:03:00,axn,45.82
2024-01-16T11:04:00,axn,46.19
2024-01-16T11:05:00,axn,45.96
2024-01-16T11:06:00,axn,46.06
2024-01-16T11:07:00,axn,46.13
2024-01-16T11:08:00,axn,45.57
2024-01-16T11:09:00,axn,45.77
2024-01-16T11:10:00,axn,45.73
2024-01-16T11:11:00,axn,45.85
2024-01-16T11:12:00,axn,46.16
2024-01-16T11:13:00,axn,47.45
2024-01-16T11:14:00,axn,47.17
2024-01-16T11:15:00,axn,47.52
2024-01-16T11:16:00,axn,48.00
2024-01-16T11:17:00,axn,47.07
2024-01-16T11:18:00,axn,47.54
2024-01-16T11:19:00,axn,47.09
2024-01-16T11:20:00,axn,47.32
2024-01-16T11:21:00,axn,48.09
2024-01-16T11:22:00,axn,48.09
2024-01-16T11:23:00,axn,48.04
2024-01-16T11:24:00,axn,48.19
2024-01-16T11:25:00,axn,48.40
2024-01-16T11:26:00,axn,48.33
2024-01-16T11:27:00,axn,47.98
2024-01-16T11:28:00,axn,49.62
2024-01-16T11:29:00,axn,48.24
2024-01-16T11:30:00,axn,49.44
2024-01-16T11:31:00,axn,47.94
2024-01-16T11:32:00,axn,47.84
2024-01-16T11:33:00,axn,47.95
2024-01-16T11:34:00,axn,48.76
2024-01-16T11:35:00,axn,48.14
2024-01-16T11:36:00,axn,49.83
2024-01-16T11:37:00,axn,47.76
2024-01-16T11:38:00,axn,50.25
2024-01-16T11:39:00,axn,48.43
2024-01-16T11:40:00,axn,48.70
2024-01-16T11:41:00,axn,48.52
2024-01-16T11:42:00,axn,48.23
2024-01-16T11:43:00,axn,48.24
2024-01-16T11:44:00,axn,47.60
2024-01-16T11:45:00,axn,49.21
2024-01-16T11:46:00,axn,48.31
2024-01-16T11:47:00,axn,48.28
2024-01-16T11:48:00,axn,47.83
2024-01-16T11:49:00,axn,47.89
2024-01-16T11:50:00,axn,49.29
2024-01-16T11:51:00,axn,49.05
2024-01-16T11:52:00,axn,47.62
2024-01-16T11:53:00,axn,47.77
2024-01-16T11:54:00,axn,47.81
2024-01-16T11:55:00,axn,47.94
2024-01-16T11:56:00,axn,47.93
2024-01-16T11:57:00,axn,48.19
2024-01-16T11:58:00,axn,50.81
2024-01-16T11:59:00,axn,47.61
2024-01-16T12:00:00,axn,48.02
2024-01-16T12:01:00,axn,47.69
2024-01-16T12:02:00,axn,47.56
2024-01-16T12:03:00,axn,47.45
2024-01-16T12:04:00,axn,47.61
2024-01-16T12:05:00,axn,47.68
2024-01-16T12:06:00,axn,47.21
2024-01-16T12:07:00,axn,47.41
2024-01-16T12:08:00,axn,48.90
2024-01-16T12:09:00,axn,48.11
2024-01-16T12:10:00,axn,48.55
2024-01-16T12:11:00,axn,48.36
2024-01-16T12:12:00,axn,48.23
2024-01-16T12:13:00,axn,47.40
2024-01-16T12:14:00,axn,47.69
2024-01-16T12:15:00,axn,47.31
2024-01-16T12:16:00,axn,47.68
2024-01-16T12:17:00,axn,48.32
2024-01-16T12:18:00,axn,47.98
2024-01-16T12:19:00,axn,48.47
2024-01-16T12:20:00,axn,48.00
2024-01-16T12:21:00,axn,48.01
2024-01-16T12:22:00,axn,72.19
2024-01-16T12:23:00,axn,48.70
2024-01-16T12:24:00,axn,48.21
2024-01-16T12:25:00,axn,48.13
2024-01-16T12:26:00,axn,48.18
2024-01-16T12:27:00,axn,53.49
2024-01-16T12:28:00,axn,53.65
2024-01-16T12:29:00,axn,54.10
2024-01-16T12:30:00,axn,47.32
2024-01-16T12:31:00,axn,47.76
2024-01-16T12:32:00,axn,47.09
2024-01-16T12:33:00,axn,49.09
2024-01-16T12:34:00,axn,49.40
2024-01-16T12:35:00,axn,48.32
2024-01-16T12:36:00,axn,48.44
2024-01-16T12:37:00,axn,49.86
2024-01-16T12:38:00,axn,48.77
2024-01-16T12:39:00,axn,48.72
2024-01-16T12:40:00,axn,47.72
2024-01-16T12:41:00,axn,47.66
2024-01-16T12:42:00,axn,47.27
2024-01-16T12:43:00,axn,47.48
2024-01-16T12:44:00,axn,47.38
2024-01-16T12:45:00,axn,47.39
2024-01-16T12:46:00,axn,47.10
2024-01-16T12:47:00,axn,47.79
2024-01-16T12:48:00,axn,47.68
2024-01-16T12:49:00,axn,47.66
2024-01-16T12:50:00,axn,47.42
2024-01-16T12:51:00,axn,47.16
2024-01-16T12:52:00,axn,47.37
2024-01-16T12:53:00,axn,48.54
2024-01-16T12:54:00,axn,53.11
2024-01-16T12:55:00,axn,52.55
2024-01-16T12:56:00,axn,54.05
2024-01-16T12:57:00,axn,52.41
2024-01-16T12:58:00,axn,49.81
2024-01-16T12:59:00,axn,49.29
2024-01-16T13:00:00,axn,49.58
2024-01-16T13:01:00,axn,50.46
2024-01-16T13:02:00,axn,48.12
2024-01-16T13:03:00,axn,50.45
2024-01-16T13:04:00,axn,48.05
2024-01-16T13:05:00,axn,48.23
2024-01-16T13:06:00,axn,72.79
2024-01-16T13:07:00,axn,72.64
2024-01-16T13:08:00,axn,59.89
2024-01-16T13:09:00,axn,72.62
2024-01-16T13:10:00,axn,63.20
2024-01-16T13:11:00,axn,62.69
2024-01-16T13:12:00,axn,62.65
2024-01-16T13:13:00,axn,48.63
2024-01-16T13:14:00,axn,49.56
2024-01-16T13:15:00,axn,49.20
2024-01-16T13:16:00,axn,48.75
2024-01-16T13:17:00,axn,64.71
2024-01-16T13:18:00,axn,64.09